Regional Weather Roundup
Issued by NWS

Home | Current Version | Previous Version | Graphics & Text | Print | Product List | Glossary On
Versions: 1 2 3 4 5 6 7 8 9 10 11 12 13 14 15 16 17 18 19 20 21 22 23 24 25 26 27 28 29 30 31 32 33 34 35 36 37 38 39 40 41 42 43 44 45 46 47 48 49 50
000
ASUS45 KCYS 260010
RWRWY

WYOMING REGIONAL WEATHER ROUNDUP
NATIONAL WEATHER SERVICE CHEYENNE WY
500 PM MST THU DEC 25 2014

NOTE:  "FAIR" INDICATES FEW OR NO CLOUDS BELOW 12,000 FEET
WITH NO SIGNIFICANT WEATHER AND/OR OBSTRUCTIONS TO VISIBILITY.

WYZ001-260100-
YELLOWSTONE NATIONAL PARK

CITY           SKY/WX    TMP DP  RH WIND       PRES   REMARKS
LK YELLOWSTONE   N/A     14   7  73 VRB3      29.74R
6HR MIN TEMP:  14; 6HR MAX TEMP:  17; 6HR PCP:  0.01;

W YELLOWSTONE  NOT AVBL

$$
WYZ002>013-054>058-071-098>099-260100-
NORTHERN WYOMING

CITY           SKY/WX    TMP DP  RH WIND       PRES   REMARKS
JACKSON        CLOUDY    21  18  86 N22       29.69R WCI   5
CODY           CLOUDY    19  19 100 N10       29.86R WCI   8
GREYBULL       CLOUDY    24  18  77 NW29G35   29.83R WCI   7
6HR MIN TEMP:  24; 6HR MAX TEMP:  29;

WORLAND        LGT SNOW  23  18  81 NW9       29.85R WCI  13
6HR MIN TEMP:  23; 6HR MAX TEMP:  25; 6HR PCP:  0.03;

SHERIDAN       LGT SNOW  22  18  85 NW9       29.94R FOG     WCI  12
6HR MIN TEMP:  22; 6HR MAX TEMP:  26; 6HR PCP:  0.09;

BUFFALO        CLOUDY    19  16  88 N23G33    29.86R WCI   2
6HR MIN TEMP:  19; 6HR MAX TEMP:  23; 6HR PCP: TRACE;

GILLETTE       CLOUDY    20  18  92 N16       29.87R WCI   6
6HR MIN TEMP:  20; 6HR MAX TEMP:  24; 6HR PCP:  0.03;

HULETT           N/A    N/A N/A N/A MISG        N/A
NEWCASTLE      FAIR      25  16  68 NW14G21   29.82R WCI  13

$$
WYZ014>020-022>026-101>103-260100-
CENTRAL WYOMING

CITY           SKY/WX    TMP DP  RH WIND       PRES   REMARKS
BIG PINEY      CLOUDY    20  17  88 W8        29.65R WCI  10
6HR MIN TEMP:  20; 6HR MAX TEMP:  24; 6HR PCP: TRACE;

PINEDALE       CLOUDY    21   9  58 NE7       29.64R WCI  13
DUBOIS         NOT AVBL
LANDER         LGT SNOW  20  18  92 N7        29.79R FOG     WCI  11
6HR MIN TEMP:  20; 6HR MAX TEMP:  24; 6HR PCP:  0.23;

RIVERTON       LGT SNOW  20  15  81 N20       29.79R WCI   4
6HR MIN TEMP:  20; 6HR MAX TEMP:  24; 6HR PCP:  0.01;

CASPER         LGT SNOW  20  16  84 NE12      29.79R FOG     WCI   8
6HR MIN TEMP:  20; 6HR MAX TEMP:  24; 6HR PCP:  0.02;

DOUGLAS        LGT SNOW  20  17  88 N18       29.79R FOG     WCI   5
6HR MIN TEMP:  20; 6HR MAX TEMP:  28; 6HR PCP:  0.01;


$$
WYZ021-027>030-104>119-260100-
SOUTHERN WYOMING

CITY           SKY/WX    TMP DP  RH WIND       PRES   REMARKS
EVANSTON       LGT SNOW  20  18  92 NW7       29.62R FOG     WCI  11
6HR MIN TEMP:  20; 6HR MAX TEMP:  22; 6HR PCP:  0.04;

FORT BRIDGER   SNOW      20  19  96 E14       29.66R VSB 1/2 WCI   7
ROCK SPRINGS   LGT SNOW  17  14  88 NE25G36   29.63R FOG     WCI  -1
6HR MIN TEMP:  17; 6HR MAX TEMP:  23; 6HR PCP:  0.01;

DIXON          LGT SNOW  25  19  80 NE18      29.58R WCI  11
RAWLINS        LGT SNOW  18  14  84 NE23      29.65R FOG     WCI   0
6HR MIN TEMP:  18; 6HR MAX TEMP:  22; 6HR PCP:  0.07;

SARATOGA       LGT SNOW  23  21  93 CALM      29.58R
LARAMIE        LGT SNOW  18  14  84 NE16      29.62R VSB 3/4 WCI   3
6HR MIN TEMP:  18; 6HR MAX TEMP:  29; 6HR PCP:  0.03;

CHEYENNE       FOG       21  18  88 N17G29    29.64R VSB 1/2 WCI   7
6HR MIN TEMP:  21; 6HR MAX TEMP:  30; 6HR PCP:  0.06;

TORRINGTON     LGT SNOW  25  20  81 N20       29.76R WCI  11
6HR MIN TEMP:  25; 6HR MAX TEMP:  30; 6HR PCP: TRACE;

PINE BLUFFS    CLOUDY    25  23  93 NE16      29.69R WCI  12

$$


USA.gov is the U.S. government's official web portal to all federal, state and local government web resources and services.